SCP
0 0 0 0 0 0 0 0 0 0 0 1 1 2 2 2 3 3 3 2 2 2 3 4 4 5 6 6 6 5 4 3 3 2 2 2 2 1 1 1 1 1 1 1
0 0 0 0 0 0 0 0 0 0 1 1 2 2 2 2 2 3 3 3 3 4 5 5 5 6 7 7 7 6 5 4 3 2 2 2 2 1 1 1 1 1 1 1
0 0 0 0 0 0 0 0 0 1 1 1 2 2 2 2 2 3 3 3 4 5 5 5 6 8 9 10 9 7 6 5 4 3 3 2 2 1 1 1 1 1 1 1
0 0 0 0 0 0 0 0 0 0 1 1 2 2 1 1 2 3 3 3 3 4 4 5 6 9 10 10 9 9 8 6 5 4 3 2 2 1 1 1 1 1 1 1
0 0 0 0 0 0 0 0 0 0 1 1 1 1 1 1 2 2 3 3 3 3 3 4 6 8 9 10 10 10 9 7 6 5 3 2 2 1 1 1 1 1 1 2
0 0 0 0 0 0 0 0 0 0 0 0 0 0 1 1 2 2 2 3 3 3 3 4 5 7 8 10 10 11 10 8 6 5 3 2 2 1 1 1 1 1 2 2
0 0 0 0 0 0 0 0 0 0 0 0 0 0 0 0 1 2 2 2 3 3 3 4 5 6 7 9 10 11 10 8 6 5 4 3 2 2 2 2 2 2 2 2
0 0 0 0 0 0 0 0 0 0 0 0 0 0 0 0 1 1 2 2 3 3 4 4 4 5 7 9 10 11 10 8 6 5 5 4 3 2 2 2 2 2 2 2
0 0 0 0 0 0 0 0 0 0 0 0 0 0 0 1 3 4 4 4 5 5 6 6 5 5 7 9 12 13 12 10 8 7 6 5 4 3 2 2 2 2 2 2
0 0 0 0 0 0 0 0 0 0 0 0 0 1 1 4 8 9 9 8 8 8 8 7 6 5 6 9 12 14 13 12 10 9 7 6 4 3 2 2 1 1 1 1
0 0 0 0 0 0 0 0 0 0 0 0 0 1 2 5 9 12 12 12 10 8 7 6 5 5 5 7 10 11 12 11 10 8 7 6 5 4 3 2 2 1 2 2
0 0 0 0 0 0 0 0 0 0 0 0 0 1 2 4 7 10 12 11 9 8 7 5 5 4 5 6 7 7 8 8 8 6 5 5 4 4 3 2 2 2 2 2
0 0 0 0 0 0 0 0 0 0 0 0 0 1 1 3 5 9 10 10 9 8 7 6 5 4 4 5 4 4 5 6 6 5 4 4 3 3 2 2 2 2 2 2
0 0 0 0 0 0 0 0 0 0 0 0 0 1 1 3 5 8 10 9 8 8 8 7 6 5 4 4 4 4 5 6 5 4 4 4 3 2 2 2 2 2 2 2
0 0 0 0 0 0 0 0 0 0 0 1 1 2 2 3 5 6 7 7 7 8 10 10 8 7 6 5 5 4 4 5 5 4 4 3 3 3 3 3 3 2 2 2
0 0 0 0 0 0 0 0 0 1 1 2 3 3 3 4 5 5 5 6 7 9 10 10 8 7 6 5 5 5 5 5 4 4 3 3 3 3 3 3 3 2 2 2
0 0 0 0 0 0 1 1 1 1 2 3 3 3 4 5 6 5 5 5 7 8 8 7 6 6 5 4 5 6 6 6 5 4 3 3 3 4 3 3 3 3 2 2
0 0 0 0 0 0 1 1 2 2 3 3 3 4 5 7 7 6 5 5 6 6 6 5 5 5 5 5 7 8 8 6 5 4 3 3 3 4 4 4 3 3 3 3
0 0 0 0 0 1 1 2 2 3 3 3 3 4 6 8 8 6 6 6 6 6 6 6 6 5 6 7 9 10 8 6 5 3 3 2 3 4 4 4 4 3 3 3
0 0 0 0 1 1 2 3 2 2 3 2 3 4 7 8 8 8 8 8 8 8 8 8 7 7 8 10 11 10 8 6 4 3 2 2 3 4 4 4 4 3 3 3
1 0 0 0 1 2 3 3 3 2 2 2 3 5 7 8 10 12 13 12 10 8 7 7 8 9 10 11 11 9 6 5 3 3 2 2 3 3 4 3 3 3 3 3
1 1 0 0 1 2 3 3 2 2 2 3 4 6 9 11 13 14 14 12 10 8 6 6 7 9 10 10 8 6 5 4 4 3 2 3 3 3 3 3 2 2 2 2
1 1 1 1 2 2 3 3 3 3 4 6 8 9 10 11 11 11 11 10 9 8 7 6 7 9 9 8 6 5 5 5 4 3 3 3 3 3 3 2 2 2 2 1
1 1 2 3 3 3 3 3 3 4 7 9 10 9 9 8 8 7 8 8 8 8 8 7 7 8 9 8 6 5 5 5 5 4 3 3 3 3 2 2 2 2 1 1
1 2 3 4 3 3 3 3 4 6 9 10 8 7 7 6 6 6 8 9 9 9 8 7 7 7 7 6 5 4 4 5 5 4 4 4 3 3 2 2 1 1 1 1
1 2 3 4 3 3 3 3 4 8 10 9 7 6 6 6 6 7 9 10 10 9 8 7 7 6 5 5 4 4 4 4 5 5 5 4 3 3 2 1 1 1 1 1
Wind_Speed
1 3 3 6 5 5 2 1 3 5 3 4 6 7 10 9 9 10 10 9 10 11 10 12 12 12 10 9 9 9 9 7 6 4 3 3 2 2 2 3 5 5 4 4
2 4 9 5 4 3 3 3 4 5 2 3 5 5 7 9 11 12 12 11 10 7 8 10 11 11 11 11 10 10 10 9 7 5 4 3 3 2 3 3 3 4 4 4
6 7 5 5 4 3 3 4 4 3 3 2 4 1 3 4 5 7 9 10 11 12 12 12 11 11 10 10 11 11 10 9 8 6 3 2 2 1 1 2 2 3 4 4
6 8 6 5 6 5 4 5 3 2 2 1 4 2 5 5 5 7 9 9 10 11 11 11 11 11 12 12 11 9 10 9 8 8 6 6 5 4 4 3 3 3 4 5
6 5 5 6 8 6 6 3 3 2 3 1 2 4 6 2 4 7 8 10 11 12 13 14 14 13 12 11 10 9 9 8 8 8 8 7 5 4 3 3 3 3 3 4
7 5 5 7 6 5 3 3 5 5 5 1 3 3 4 4 8 7 8 10 12 12 13 13 12 10 9 10 9 9 9 9 8 8 8 8 7 6 5 4 4 3 2 3
4 5 4 2 1 2 5 7 4 5 4 5 3 3 7 8 7 8 9 11 11 12 11 11 11 11 11 11 11 10 11 9 9 8 8 8 7 7 7 5 5 4 3 3
3 5 5 3 5 4 4 10 8 5 4 4 2 2 7 7 5 4 5 7 8 9 10 11 12 13 12 12 11 11 11 10 9 9 8 7 7 5 4 5 4 4 3 3
6 6 6 5 5 7 4 4 9 7 2 1 3 4 7 3 2 1 2 2 5 7 8 9 9 10 11 11 11 11 11 9 9 9 8 6 6 5 5 4 4 3 3 3
5 3 5 4 1 2 7 7 6 6 4 1 4 2 3 5 2 1 2 3 4 5 7 7 6 8 9 9 8 8 9 9 7 7 7 6 5 5 5 4 4 4 4 3
4 3 5 1 5 6 3 4 6 5 6 6 1 6 5 6 2 2 1 1 3 5 7 7 6 6 6 7 7 7 7 6 6 6 5 5 4 4 4 4 4 3 3 3
4 5 3 6 6 7 6 6 8 6 3 5 4 7 5 3 2 3 2 2 3 3 5 6 7 7 6 5 6 6 6 6 5 6 5 5 4 4 4 3 3 3 3 3
5 6 2 6 6 2 2 4 6 7 5 4 4 6 4 1 2 3 3 3 3 4 6 6 6 6 6 6 5 5 5 5 5 5 5 4 4 4 4 3 3 3 3 3
7 5 6 7 6 4 2 3 4 7 5 4 6 5 4 2 2 2 3 4 4 4 6 6 6 6 6 5 5 5 5 5 5 5 5 4 4 4 4 3 3 3 3 3
6 4 3 4 3 1 3 4 4 5 8 8 7 7 7 6 5 4 4 6 7 7 7 6 5 5 6 6 5 5 5 5 5 6 5 4 4 3 3 3 3 3 3 3
5 4 2 2 3 2 2 2 4 4 5 5 5 4 5 4 4 5 5 8 8 7 7 6 5 6 5 5 5 5 5 4 5 6 5 5 4 3 3 3 3 3 3 3
3 4 4 2 3 4 3 4 3 3 4 8 7 6 5 6 6 6 6 7 7 7 6 7 6 6 6 5 5 5 5 4 5 5 4 4 4 4 4 4 3 3 3 3
6 5 4 1 3 2 7 4 3 4 2 3 5 6 8 8 6 4 5 7 6 6 6 5 4 4 4 4 4 4 5 5 5 5 4 4 4 4 4 4 4 3 3 3
6 7 4 3 2 3 5 3 0 3 1 1 5 7 8 8 8 4 2 5 6 6 5 4 4 5 5 5 5 6 6 5 5 4 4 4 5 5 5 4 4 3 3 3
5 6 6 4 3 4 6 5 3 5 1 2 5 7 6 6 5 2 2 5 6 5 5 5 4 5 6 4 5 7 5 5 4 3 3 4 5 5 5 5 4 3 4 3
3 3 4 4 3 5 5 6 2 4 6 2 4 7 6 4 5 5 5 6 6 6 6 5 6 5 4 4 6 7 5 3 2 3 4 4 4 4 5 5 4 4 4 4
5 4 4 4 3 7 5 2 2 5 3 3 4 5 8 7 7 7 8 8 7 6 5 5 6 5 4 4 6 7 4 2 3 4 4 4 4 3 4 5 5 5 5 5
2 5 5 6 6 5 1 1 1 3 4 3 3 5 9 9 8 8 7 8 7 6 5 5 6 6 5 4 5 6 3 3 4 5 4 4 5 4 4 5 5 4 4 4
3 1 2 2 1 1 3 4 4 4 4 3 4 6 9 9 9 8 7 6 5 5 5 5 7 6 5 3 4 4 4 4 5 6 5 5 6 6 5 4 4 4 4 4
2 1 2 1 1 3 4 3 3 4 5 6 6 6 8 10 8 8 7 6 5 5 4 5 6 6 4 4 4 4 4 5 6 5 5 5 5 6 6 6 5 4 3 2
1 2 3 3 3 2 2 0 4 5 5 5 6 6 6 8 8 7 6 5 5 5 5 6 6 6 5 4 4 3 3 4 6 5 4 4 4 4 5 6 7 11 9 9
Wind_Direction
228 80 229 226 201 194 209 258 266 258 219 136 159 169 177 169 169 173 176 182 189 192 181 172 172 171 168 169 169 169 167 172 163 155 156 156 173 176 169 179 182 181 184 181
37 252 237 229 233 232 232 252 276 295 281 135 166 191 184 170 184 184 181 186 188 184 172 173 173 174 176 177 176 174 174 175 175 174 168 165 165 180 182 184 188 193 187 183
197 240 236 223 237 227 243 207 239 259 332 47 115 348 215 206 195 191 182 180 179 180 178 177 177 180 179 183 183 184 181 177 179 173 155 147 120 99 150 190 200 208 190 185
237 250 249 228 228 194 243 231 209 214 95 286 135 177 256 223 210 204 193 179 184 184 179 179 184 187 189 190 184 185 183 178 179 173 172 171 178 189 201 193 197 209 199 189
244 232 219 232 228 197 214 204 162 177 138 33 8 131 263 223 222 228 207 195 194 189 181 184 188 191 192 189 181 182 180 180 182 180 179 181 189 195 189 182 190 206 213 204
247 260 219 219 229 208 169 76 40 44 67 14 257 144 258 229 214 215 208 200 198 189 185 189 187 178 184 185 179 178 179 187 188 185 183 186 190 188 181 189 192 204 222 220
285 284 258 226 216 336 99 88 43 13 21 251 263 146 242 247 225 203 198 197 194 187 182 184 181 177 181 185 183 180 182 189 191 189 189 192 193 188 191 193 195 196 206 216
202 271 247 204 173 178 165 133 149 173 206 275 340 211 251 252 240 208 186 190 186 183 183 187 188 185 185 185 182 181 184 188 191 192 193 193 191 188 193 193 190 197 200 210
184 244 262 218 178 154 157 157 161 135 157 60 306 297 309 319 12 55 114 143 181 186 183 181 181 182 181 182 182 182 183 186 190 191 188 188 187 185 189 188 184 193 201 208
172 231 273 246 151 165 162 155 99 109 133 191 310 304 273 300 314 43 103 157 162 159 164 161 171 177 177 177 173 172 179 186 183 181 182 183 182 186 186 180 187 194 199 197
165 173 294 329 184 196 149 125 116 122 147 147 208 270 232 220 209 132 137 141 151 154 155 157 160 161 161 156 157 164 169 169 168 169 167 169 170 177 175 180 190 190 188 179
165 132 247 256 242 186 163 167 141 146 201 151 157 259 276 213 192 134 115 108 117 116 139 148 148 142 132 139 149 154 156 159 163 162 160 166 166 169 174 182 188 183 176 172
143 116 79 340 336 327 152 164 148 135 124 143 154 255 291 288 106 122 118 108 92 95 111 125 132 134 138 136 137 141 151 157 155 149 152 156 164 165 172 179 175 163 158 157
118 115 151 185 216 226 234 230 159 129 145 178 198 216 268 248 146 122 123 117 114 112 109 115 118 126 132 134 137 144 156 157 147 142 148 156 171 172 170 165 156 157 158 153
101 127 175 206 230 228 223 231 200 165 171 174 205 198 217 202 176 154 132 120 117 115 106 115 120 130 132 129 135 150 148 143 146 144 152 171 166 159 152 151 150 141 142 143
82 117 100 338 336 357 327 259 213 190 170 164 158 210 212 173 119 108 118 121 121 125 124 126 124 127 133 139 145 147 146 145 140 148 160 162 151 149 149 146 137 128 128 131
90 101 91 301 322 30 303 253 209 189 174 158 184 210 164 137 140 151 143 130 126 126 123 130 140 141 152 154 149 153 153 145 140 140 147 147 148 152 149 145 134 134 134 125
129 107 114 94 55 217 250 264 168 159 192 176 169 170 159 152 141 126 133 131 126 127 128 132 134 128 130 130 132 133 123 128 132 130 132 143 147 146 140 134 133 136 125 119
134 127 112 112 136 273 297 319 264 143 278 87 133 143 148 133 93 61 87 122 133 136 139 146 133 121 109 109 121 118 113 115 120 129 137 147 144 140 137 138 139 132 118 108
81 103 112 119 147 220 254 288 294 107 274 322 119 130 148 126 116 191 152 118 113 108 110 110 102 97 98 104 108 106 106 109 119 135 138 141 139 138 140 141 133 119 112 110
74 78 121 142 185 252 260 294 41 136 215 222 136 130 127 131 163 161 127 107 101 98 91 95 99 95 101 107 105 100 94 97 113 116 109 112 117 128 130 131 124 120 114 102
155 149 166 148 177 244 293 20 139 193 182 130 114 117 117 122 121 117 112 109 105 99 95 99 100 94 92 102 109 111 117 133 111 105 104 103 105 113 116 120 115 113 114 106
157 179 179 177 200 236 295 125 162 138 122 115 103 121 125 121 122 119 113 111 112 109 102 102 103 94 79 89 113 123 134 125 117 112 107 103 101 95 102 114 115 111 106 106
321 31 107 93 325 356 55 52 55 86 100 103 116 123 118 120 124 118 110 105 106 108 113 111 103 95 82 73 93 109 115 118 116 110 105 103 99 93 86 88 94 104 112 115
270 24 66 89 303 40 34 39 75 71 73 74 76 91 111 114 113 119 123 122 120 112 108 107 105 100 90 78 75 84 98 108 108 107 106 101 97 104 94 79 64 81 77 111
297 153 146 205 221 169 202 170 95 92 85 94 98 86 100 111 112 108 116 124 122 118 111 101 96 96 90 83 76 74 86 109 116 112 111 114 113 114 112 105 80 53 63 64